Showing default

SUPERVIEW NEO-2 01, 53128

Orbit data source: Space-Track

SUPERVIEW NEO-2 01, 53128 is a payload satellite owned by Siwei (CN) in SSO that was launched on Fri, 15 Jul 2022 UTC via a CHANG ZHENG 2C launch vehicle from the Taiyaun Space Center, China (TSC). Payload-class satellites include a variety of spacecraft equipped with specific instruments for various scientific and technological missions. These include communications satellites like Starlink; space stations such as the ISS; scientific satellites like the Hubble; Earth observation satellites from companies like Planet Labs, Umbra, and HawkEye 360; GPS; miniature CubeSats for education and research; and military/defense satellites.

Loading next visibility...
Identifier
53128, 2022-082A
Orbit
SSO
Country
Flag of CNCN / PRC
Related business
Manufacturer
DFH
Mission
Operational Commercial Radar Imaging
Bus & Motor
SIWEI, Unknown motor
Mass
600 kg wet, ~500 kg dry
Launch date (UTC)
2022-07-15 (4 years ago)
Launch vehicle
CHANG ZHENG 2C
Launch site
Taiyaun Space Center, China (TSC)
Object type
Payload
Rocket body
Debris
Shape & HBR
Box, 0.3 m
Radar Cross Section
0.375 m², Large (>1 m²)

Expand to show TLE details & history
Last TLE update: 2 days ago

TLE from 2 days ago
0 SUPERVIEW NEO-2 01
1 53128U 22082A   26171.25357772  .00001723  00000-0  72976-4 0  9996
2 53128  97.3939 181.1702 0001666  88.8885 271.2544 15.24506696218678
Epoch: 2026-06-20T06:05Z
TLE epoch observation values (Epoch: 2026-06-20T06:05:09.115Z)
Latitude
0.00006°
Longitude
-178.58864°
Altitude
495.339 km
Speed
7.617 km/s
True Right ascension
12h 04m 40s
True Declination
0° 00' 00"
Sunlit
Object was in daylight at epoch
Visualization orbit readout
Latitude
Unknown
Longitude
Unknown
Altitude
Unknown
Speed
Unknown
Apparent Right ascension
Unknown
Apparent Declination
Unknown
Sunlit
N/A
Visualization observer readout
Local Sidereal Time
21:27:53
Azimuth
Unknown
Elevation
Unknown
Doppler factor
Unknown
Orbital elements
Apogee altitude
490.371 km
Perigee altitude
488.082 km
Semi-major axis
6,867.363 km
Eccentricity
0.00017
Inclination
97.3939°
RAAN
181.1702°
Arg. of periapsis
88.8885°
True anomaly
271.23531°
Mean anomaly
271.2544°
Eccentric anomaly
271.24486°
Mean motion
3.8138 °/min
Orbital period
94.39 mins
BSTAR
0.000072976
Loading maneuver chart data...
Computing Atmospheric mass density...
Loading historical data...
Loading historical data...
Loading historical data...
Loading historical data...
Loading historical data...
Loading historical data...
Loading historical data...

Documentation

Showing up to 5 results
|